HIMAWARI 9

导读 | 星芒AI

HIMAWARI 9 是日本气象厅(JMA)运营的地球静止轨道气象卫星,于2016年发射,作为HIMAWARI 8的备份卫星。它搭载先进的全盘扫描成像仪(AHI),可提供高分辨率、多光谱的地球观测数据,每10分钟对整个亚洲和西太平洋区域进行一次扫描。HIMAWARI 9 主要用于天气预报、气候监测和灾害预警,尤其在台风、暴雨等极端天气事件中发挥重要作用,为气象服务提供实时、可靠的数据支持。

基本信息
目录编号:
41836
目录名称:
HIMAWARI 9
国际标识:
2016-064A
轨道中心:
EARTH
卫星名称:
HIMAWARI 9
卫星全名:
--
卫星状态:
在轨 (已飞行3330 天)
发射日期:
2016-11-02 UTC
国别 :
日本 (JP)
星等 :
--
轨道信息
数据来源 国际轨道数据 AOE轨道数据
星历时间 2025-12-14T15:14:25+0800
1天前
查看轨道信息
2025-12-15T02:00:00+0800
14小时前
查看轨道信息
半长轴 42165.653km 42165.233km
偏心率 0.0001041 0.0000917
轨道倾角 0.040° 0.042°
近地点辐角 178.705° 177.880°
升交点赤经 95.692° 93.837°
平近点角 58.196° 222.708°
近地点 35783.128km 35783.231km
远地点 35791.908km 35790.965km
周期 1436.144分钟 1436.122分钟
每日圈数 1.002685 1.0027
详细信息
使用方式:
暂无
2D轨道图
3D轨道图
轨道高度分析图
轨道倾角分析图
轨道综合分析图
查看轨道综合分析图